Wind_Speed
7 7 7 6 6 6 6 6 5 5 5 5 5 5 5 5 6 6 7 8 8 6 6 5 6 6 7 9 11 12 13 10 4 1 2 1 1 3 5 6 6 6 7 7 6 3 3 6 5 2 4 5 1 1 2 0 1 3 4 5 7 6 4 3 4 3 1 3 2 3 2 2 2 2 1 2 2 3 5 5 5 6 7 7 7 5 8 11
8 7 7 7 6 6 6 6 6 6 5 5 5 5 6 5 5 6 6 7 7 6 6 6 6 7 7 10 11 12 13 7 1 2 2 1 2 4 6 6 6 6 6 5 5 2 4 5 4 3 4 4 1 1 3 1 2 4 3 5 7 3 1 1 2 3 2 3 2 4 0 1 3 3 1 1 3 6 5 6 5 5 7 8 10 6 6 8
9 9 8 7 7 7 7 7 7 7 6 6 6 6 6 6 6 6 6 6 6 6 6 7 7 7 7 9 10 12 11 2 3 3 2 1 4 5 6 5 5 6 6 5 4 2 3 2 3 4 3 3 1 1 4 2 2 3 3 7 5 1 1 1 3 2 0 2 2 2 1 3 8 6 3 2 3 8 8 7 8 4 6 9 7 5 4 7
10 9 9 8 8 8 7 8 8 8 7 7 7 7 6 7 7 6 7 6 5 4 5 6 8 8 8 8 9 11 7 2 3 1 1 3 4 5 5 5 5 6 5 5 4 3 3 2 2 2 3 4 1 2 5 2 1 2 3 6 1 2 3 1 1 1 2 1 0 3 4 6 9 10 9 5 1 5 8 8 9 11 13 12 4 3 4 7
11 10 10 9 9 9 9 9 9 8 8 8 8 7 7 7 7 7 7 7 6 4 4 6 8 9 9 8 9 9 4 2 2 1 2 4 5 5 5 5 5 5 5 4 3 1 2 2 1 1 2 4 3 3 4 3 1 3 3 3 2 2 3 3 2 1 3 2 3 4 4 6 8 11 14 11 5 4 8 10 11 12 12 11 4 4 5 6
12 11 11 11 10 10 10 10 10 10 10 10 9 9 9 8 8 8 7 7 7 6 7 7 8 10 10 9 8 6 3 1 2 1 2 4 5 5 5 6 6 5 4 3 1 2 2 2 4 4 3 3 5 5 3 4 1 5 3 1 2 2 2 2 3 2 3 3 4 4 6 8 8 9 13 15 10 7 9 9 8 7 7 3 2 7 7 7
12 12 11 12 12 12 12 12 12 12 11 11 11 10 9 9 9 8 8 8 8 8 8 9 10 10 10 9 5 2 1 1 2 1 3 5 6 7 7 7 6 5 4 1 2 3 2 4 5 4 4 3 4 5 2 3 3 6 4 3 3 2 2 2 3 1 1 2 4 6 9 7 5 7 10 14 11 9 9 8 7 9 10 10 10 9 9 9
12 12 12 12 12 13 13 14 14 14 14 13 12 10 9 9 9 9 8 9 9 9 10 10 10 9 9 7 3 1 1 2 1 2 4 5 7 8 7 6 4 5 2 1 1 2 3 4 4 3 4 3 3 4 2 3 4 7 6 2 3 2 1 2 3 2 3 4 6 11 11 10 8 10 12 13 11 10 9 9 11 14 16 16 14 13 12 13
13 13 13 13 13 14 14 14 15 15 15 16 14 11 9 9 9 9 9 9 9 9 10 10 9 7 6 3 1 2 1 2 1 2 4 7 8 8 7 4 3 4 2 1 1 2 2 2 2 3 3 1 3 3 3 4 4 5 4 3 4 2 1 2 2 3 5 4 6 12 12 10 7 7 12 13 11 9 9 12 14 15 18 17 15 16 17 17
13 13 13 14 14 14 15 15 15 15 16 16 16 12 10 10 10 10 9 9 9 9 9 9 8 5 3 1 1 2 2 2 2 2 6 10 10 9 8 4 2 4 3 2 1 1 1 1 1 1 1 1 4 2 3 4 1 2 2 2 2 2 3 2 2 4 5 3 4 12 13 12 7 3 8 10 10 8 11 14 15 16 18 16 16 16 19 21
14 14 14 14 14 15 15 15 16 16 16 17 16 14 12 11 12 11 10 9 8 8 8 7 5 2 1 1 1 1 2 1 3 3 7 11 11 9 6 3 2 3 3 2 1 0 2 2 3 2 1 1 4 2 1 2 1 2 2 2 2 4 4 4 4 3 2 3 5 13 15 13 12 7 7 7 7 8 12 16 16 17 17 16 17 17 19 22
14 14 14 14 15 15 15 16 16 16 16 17 17 15 13 12 12 12 10 9 7 6 5 4 3 3 2 1 1 1 1 1 3 4 9 11 11 7 4 3 3 3 2 2 2 1 2 2 6 2 0 2 2 1 1 1 1 1 1 2 2 5 3 6 4 1 1 3 2 5 8 10 12 9 6 5 5 9 12 15 16 16 15 16 16 15 18 22
15 15 15 15 15 15 16 16 16 17 17 17 16 15 13 12 12 11 8 6 3 2 2 3 5 5 3 0 1 1 1 1 2 7 12 10 8 3 2 5 5 3 1 1 1 2 1 3 4 0 1 2 0 1 2 2 0 1 2 2 3 5 1 7 4 0 2 2 3 4 4 5 10 9 6 4 4 7 12 15 14 13 14 14 15 14 17 22
16 16 16 16 16 16 16 16 17 17 18 17 15 14 12 13 12 9 5 2 1 2 4 5 6 5 2 0 2 1 0 1 3 12 13 9 7 1 1 7 7 3 1 1 0 2 2 5 4 3 2 2 1 2 3 2 1 1 1 1 2 5 1 7 6 3 1 2 3 5 3 4 7 9 7 5 4 8 13 15 13 13 13 13 14 15 16 20
17 17 17 16 16 17 17 17 18 18 18 16 14 13 13 13 9 6 3 3 3 5 6 6 6 4 1 2 2 1 2 2 8 14 11 10 8 2 4 7 5 2 2 1 2 4 5 5 4 3 2 0 1 3 3 1 1 1 2 3 2 3 2 7 8 6 1 5 5 4 3 5 7 8 8 7 7 11 14 15 14 14 14 13 13 14 14 17
17 17 17 17 17 17 17 17 18 18 18 16 13 14 13 10 6 3 4 4 4 6 4 4 6 3 1 2 1 1 3 5 11 10 9 12 8 5 6 3 3 2 4 6 7 7 6 4 2 1 1 1 3 2 3 3 3 2 3 4 1 3 3 4 6 9 3 2 8 4 4 6 6 8 8 8 9 11 14 14 14 14 14 13 12 12 12 14
17 18 18 18 17 17 18 18 18 19 18 15 14 14 10 6 4 4 4 4 4 4 2 3 4 3 1 2 1 2 3 7 11 7 8 14 8 5 5 1 3 4 7 7 5 4 3 2 1 1 0 1 1 1 3 5 4 2 2 3 1 2 3 2 4 9 7 3 7 9 9 8 8 9 8 9 9 11 13 13 13 12 12 12 11 12 12 13
18 19 19 18 17 17 17 18 18 18 16 13 14 12 6 3 4 5 4 3 2 3 3 3 1 2 2 3 1 4 8 10 9 7 11 15 8 4 5 2 2 3 5 3 2 0 1 1 1 2 1 2 2 3 5 4 3 2 2 3 1 2 5 2 3 4 7 10 10 11 12 10 10 10 9 9 9 11 12 12 12 12 12 12 11 12 12 13
20 20 20 18 17 17 17 17 17 15 13 13 13 8 2 3 5 5 7 6 2 1 1 1 2 1 1 3 3 9 11 6 5 9 14 17 9 2 4 3 2 2 2 1 1 1 1 0 2 3 2 3 2 4 7 3 3 3 4 4 4 3 3 2 4 3 6 11 9 9 11 11 11 10 9 9 8 10 11 10 10 10 11 11 11 11 12 13
21 21 20 18 17 16 16 17 15 12 11 13 11 5 1 2 1 2 6 7 3 1 2 2 2 1 1 2 6 12 8 1 3 10 16 18 9 1 2 2 1 2 1 1 0 2 1 3 3 3 4 3 2 3 4 3 1 3 4 4 5 5 1 4 6 3 4 7 8 9 13 12 10 9 9 8 8 10 10 10 10 10 10 10 11 12 12 12
21 21 20 18 17 16 16 15 12 10 10 11 7 2 1 1 1 1 2 3 1 1 2 1 1 2 2 2 7 11 4 1 3 9 19 18 6 2 2 2 1 1 2 1 1 1 2 4 1 3 5 4 3 2 1 1 1 3 5 5 5 5 1 5 4 1 1 3 6 9 12 11 9 9 8 7 8 9 9 9 10 10 10 9 10 11 11 10
21 21 19 18 16 15 16 12 9 9 9 8 6 5 3 1 1 1 0 1 2 1 1 1 0 1 1 1 6 8 2 2 4 8 20 18 6 3 3 2 1 1 2 1 2 1 3 1 3 5 3 1 2 1 1 2 3 3 3 4 4 2 5 5 4 3 1 3 7 10 10 9 8 9 8 7 8 8 8 9 9 9 9 9 9 9 9 9
21 19 18 17 15 15 14 9 7 9 8 8 8 6 4 4 5 3 1 2 2 1 1 2 1 3 3 1 7 8 2 3 3 8 18 15 6 3 3 3 2 1 2 2 2 3 3 2 4 4 2 1 1 2 2 2 3 3 3 4 3 4 5 1 3 5 4 3 10 11 8 7 7 8 8 7 8 8 9 10 10 9 9 9 9 8 8 9
20 18 16 16 14 14 12 5 6 9 9 10 9 7 5 5 4 3 1 1 2 1 2 2 0 2 3 1 7 8 2 3 3 7 15 13 5 2 1 3 2 0 3 3 1 2 3 4 3 2 0 2 2 0 1 2 2 2 4 5 3 4 3 0 7 9 8 6 12 12 6 4 7 7 7 6 6 8 8 9 9 9 9 9 9 9 9 9
19 18 16 15 13 14 9 2 7 8 6 7 7 5 4 4 2 1 1 1 1 1 1 0 1 3 3 2 8 6 2 2 3 5 9 9 5 3 1 1 2 3 2 2 2 2 2 3 2 2 1 1 2 1 2 3 4 2 2 3 4 2 4 9 12 9 5 3 10 10 3 3 8 9 8 7 6 7 6 7 8 7 7 7 8 8 9 9
19 17 16 15 13 12 5 1 7 7 3 4 4 2 2 2 1 0 1 1 2 1 2 1 1 4 5 4 7 3 3 2 3 3 6 7 4 1 1 1 0 3 1 0 1 0 2 1 1 2 1 2 2 1 3 2 4 3 1 2 1 3 8 13 13 8 2 1 9 12 7 1 7 9 10 9 8 8 7 7 7 6 6 6 6 6 7 7
19 17 16 14 12 10 4 1 6 5 2 3 3 2 1 1 1 0 1 1 2 1 2 2 1 5 6 5 6 1 0 4 1 3 6 8 5 2 1 3 1 2 1 1 1 1 2 2 2 3 3 3 2 2 3 3 4 2 2 1 2 6 9 12 11 7 2 2 7 12 7 3 4 8 12 12 9 9 8 7 7 6 6 6 6 6 6 7
18 16 14 11 9 10 5 2 5 4 2 2 2 1 1 1 0 1 1 1 1 1 1 2 1 4 5 5 6 3 1 5 2 4 7 8 7 2 1 5 2 2 2 3 2 3 1 4 6 5 3 3 3 3 4 3 3 2 2 1 1 3 5 7 7 5 1 1 4 10 8 5 2 7 11 11 10 9 8 8 7 6 6 6 6 6 6 6
17 14 11 8 7 9 6 4 5 4 2 2 0 0 1 1 1 2 1 1 0 1 1 2 1 4 6 4 4 5 2 3 3 6 8 6 8 4 2 3 1 1 2 2 3 3 2 3 4 4 3 4 3 3 3 3 2 2 2 1 2 2 1 3 5 4 1 4 6 8 12 7 1 7 9 10 11 9 8 7 6 7 6 6 5 5 5 5
15 10 8 7 6 8 5 3 6 4 3 2 1 1 1 1 1 1 2 0 1 1 0 3 2 4 7 3 3 5 4 4 3 5 4 2 7 7 3 1 1 1 1 2 3 1 1 0 1 2 3 3 3 1 1 2 1 1 2 2 1 2 2 1 2 2 3 5 3 3 11 9 3 5 8 6 5 7 9 7 7 7 6 5 5 4 4 4
11 7 7 8 7 7 4 2 5 4 4 2 1 2 1 0 0 2 2 0 1 2 1 4 2 3 6 5 4 6 4 3 5 6 5 3 7 11 6 2 2 1 2 3 2 2 2 2 0 1 2 3 3 1 1 0 1 2 3 3 3 2 3 2 2 2 4 3 2 3 5 8 4 2 4 3 5 8 8 7 8 8 6 5 4 3 3 3
7 5 7 10 9 8 5 3 4 4 3 1 3 2 1 0 1 2 1 2 1 3 2 2 2 4 4 2 4 7 4 3 5 5 5 4 7 9 8 6 5 3 5 5 5 3 2 2 2 1 1 3 4 3 1 3 2 3 3 3 4 3 1 3 1 2 4 0 4 3 0 3 1 3 4 6 8 8 7 8 8 7 6 5 4 3 2 2
3 5 8 11 12 11 7 4 4 3 2 2 3 0 1 2 2 1 2 3 2 3 2 1 2 4 4 2 5 6 2 2 6 4 2 2 4 6 7 9 8 4 4 5 6 6 2 3 3 2 1 3 5 5 3 1 3 4 3 3 5 4 4 5 3 2 3 2 4 2 1 2 2 4 4 7 9 9 9 9 8 7 6 5 4 3 2 2
4 5 7 11 14 15 10 5 4 2 1 2 1 1 3 3 1 1 2 3 2 2 2 2 3 3 2 3 4 4 1 3 5 5 4 3 4 5 5 9 12 6 3 3 2 4 3 0 5 6 3 5 6 5 4 5 4 3 2 3 3 3 4 5 4 4 4 2 1 1 1 2 2 4 5 7 9 9 9 8 8 7 5 4 3 2 1 2
6 5 7 10 16 18 14 7 4 2 1 1 1 2 4 2 1 0 2 3 2 4 2 1 3 2 3 3 2 2 1 2 4 4 6 6 5 5 5 7 11 8 4 4 2 2 4 2 3 3 2 5 5 2 3 5 2 1 0 2 2 3 4 4 2 2 4 4 2 1 0 2 3 3 5 7 7 7 7 7 7 6 5 4 3 3 2 1
8 4 5 9 17 21 15 7 4 2 1 1 3 4 3 2 1 1 2 3 2 5 5 2 2 4 3 2 2 3 1 1 4 3 4 5 5 7 5 3 6 8 5 4 2 2 3 2 3 2 0 3 4 3 3 4 3 1 1 3 3 2 3 3 1 1 2 4 2 2 2 3 2 2 5 6 6 6 5 5 5 5 4 4 4 5 4 1
8 2 2 8 20 22 12 5 4 2 2 2 5 4 1 2 2 2 2 3 1 3 5 2 3 4 3 2 4 6 5 2 4 4 3 2 3 6 7 3 3 5 5 2 0 2 3 4 3 3 1 2 0 2 1 2 3 3 4 5 3 2 1 1 2 2 3 5 2 2 1 1 2 2 5 6 5 5 3 3 4 3 2 2 4 6 4 1
6 1 1 9 24 21 9 5 3 2 3 5 6 4 1 2 1 1 2 2 1 2 3 3 2 2 2 2 3 5 7 4 5 5 3 3 3 4 6 4 2 4 4 3 2 2 2 4 1 1 2 2 1 2 1 2 2 3 2 3 2 1 2 1 1 3 4 6 4 0 1 0 0 1 4 7 6 4 3 3 3 2 3 2 4 7 4 1
4 1 2 12 25 16 8 7 5 3 5 5 4 3 2 2 1 1 1 1 2 1 2 2 1 1 2 2 2 3 4 4 5 4 3 4 3 4 4 3 2 6 6 3 2 2 1 2 1 2 1 2 1 2 3 3 4 2 1 2 3 1 3 2 2 2 3 6 5 3 1 1 3 2 3 6 5 4 2 2 2 4 4 2 5 6 4 2
1 1 1 17 24 9 11 16 10 5 6 4 1 2 1 1 1 0 2 2 1 1 1 1 0 2 3 2 1 2 3 3 3 3 3 4 3 3 4 2 4 7 6 3 2 3 1 1 3 3 1 1 3 5 5 4 5 4 4 5 4 2 2 1 1 1 2 5 5 6 5 2 4 3 1 4 4 4 3 2 2 4 3 3 5 6 5 3
1 2 2 21 19 2 7 15 10 4 4 3 2 3 1 1 1 1 1 2 1 2 2 1 2 3 2 2 2 1 2 2 3 2 2 4 4 2 3 3 3 6 5 3 2 4 3 1 4 6 4 3 4 4 3 4 6 6 5 4 4 3 2 3 2 2 1 4 3 6 6 2 3 2 3 4 4 4 4 2 2 4 4 4 6 6 4 2
2 2 6 19 13 7 7 7 3 2 3 3 2 2 1 0 1 2 2 1 2 2 2 2 3 3 2 2 1 1 1 2 3 2 2 4 4 3 3 3 2 4 3 2 2 3 3 2 3 4 3 4 4 3 2 4 6 7 6 4 3 2 2 4 5 3 2 2 1 3 4 1 2 2 3 4 4 4 3 2 3 4 4 5 7 6 3 2
2 2 8 18 8 6 7 5 1 4 4 2 1 1 2 2 2 2 3 3 2 1 2 2 1 2 2 1 1 1 2 2 2 3 3 2 2 2 2 1 3 3 2 1 2 1 1 1 3 3 1 2 4 4 2 2 2 4 6 5 4 2 2 3 3 3 3 3 2 3 4 0 3 3 3 4 3 2 1 3 4 5 5 6 8 6 4 4
1 2 6 18 12 5 3 4 2 2 3 2 2 3 2 2 3 4 3 4 3 1 2 2 1 2 2 1 1 2 3 2 2 3 2 2 2 2 2 1 2 3 2 2 2 2 1 1 3 3 2 0 2 2 2 2 1 3 3 4 4 2 3 2 1 2 2 2 3 5 5 1 4 4 3 3 2 1 2 3 5 6 6 7 8 6 4 4
2 1 2 15 21 12 4 1 2 3 3 3 4 3 2 3 3 2 2 3 2 1 1 2 1 2 1 0 1 4 5 3 3 2 1 2 2 1 1 2 2 3 2 0 2 3 1 2 2 3 4 4 4 3 3 3 3 2 3 5 6 4 3 2 2 2 1 2 3 4 4 2 3 6 4 2 2 4 4 5 6 6 7 8 7 5 5 5
1 2 1 6 12 9 3 1 2 3 3 3 4 3 3 3 2 1 0 2 2 1 2 3 1 1 1 2 2 4 6 5 3 3 2 3 2 0 0 1 2 3 1 2 1 1 1 1 3 2 2 4 5 4 4 4 4 2 4 6 7 5 3 2 2 2 2 4 4 1 1 6 3 5 4 3 4 5 6 7 8 8 8 9 7 5 5 5
1 2 1 1 2 3 3 4 4 2 1 1 2 2 3 3 1 1 1 1 1 1 2 3 4 2 2 2 1 3 4 3 4 3 1 2 3 2 2 1 1 4 2 3 0 1 1 1 2 1 3 3 3 3 3 3 2 2 3 4 6 7 4 3 2 2 3 4 3 1 1 8 7 1 2 3 5 6 7 9 10 9 9 9 7 6 7 6
2 2 1 2 1 1 2 3 4 4 4 2 2 2 2 3 3 2 1 1 1 1 0 2 5 6 3 2 1 2 2 2 3 2 1 1 3 3 2 1 0 4 3 1 2 1 0 2 1 1 3 3 1 2 1 1 3 4 3 3 5 6 5 4 3 1 2 4 7 7 7 10 8 2 1 4 5 7 9 9 10 10 10 9 7 7 7 6
2 3 1 2 2 2 2 2 2 4 6 5 3 2 3 4 4 2 1 1 1 3 3 2 4 7 5 2 1 2 2 2 3 1 1 1 2 3 3 1 0 3 4 3 3 1 1 1 2 1 3 3 1 1 1 2 3 4 4 4 4 3 3 2 2 2 2 6 9 10 11 11 7 1 2 4 5 7 8 9 10 11 12 9 7 8 7 7
1 2 1 2 4 2 2 2 1 3 5 4 3 2 2 3 3 2 1 3 2 3 4 3 3 5 6 5 3 4 3 3 3 2 2 2 0 1 1 1 1 4 5 3 2 2 2 2 2 1 3 2 2 1 1 3 3 3 3 4 4 2 1 0 1 2 4 8 9 9 11 9 2 1 3 6 6 8 10 11 12 12 11 9 8 8 8 8
4 4 4 5 4 3 3 2 1 2 3 3 2 1 1 2 2 2 2 3 3 3 4 2 3 2 4 7 8 6 4 2 3 2 1 1 2 1 1 1 1 4 4 3 2 3 3 2 1 0 3 1 2 1 1 3 3 3 1 3 5 3 1 2 3 3 5 9 10 9 9 5 1 1 6 7 8 10 12 12 12 12 10 8 7 7 8 9
5 4 3 4 3 2 2 1 1 2 2 2 2 1 1 2 1 0 2 2 1 3 3 1 1 1 3 6 7 4 3 1 2 2 1 2 4 4 3 3 1 2 2 1 1 2 2 1 1 2 4 2 1 1 1 3 2 1 1 2 3 2 3 4 6 6 7 6 6 7 5 4 3 5 8 10 12 13 11 11 12 12 9 7 6 7 9 9
Wind_Direction
45 44 40 36 29 23 16 7 1 356 351 347 339 332 327 319 322 325 332 341 348 352 343 334 317 312 316 319 326 329 333 335 321 228 174 179 256 280 293 301 301 313 328 335 337 313 197 190 195 216 189 169 211 179 159 119 148 200 218 229 236 236 227 193 203 202 316 326 57 96 218 255 74 122 147 179 175 91 104 77 68 79 62 51 46 61 118 133
46 43 38 32 27 22 17 11 7 3 356 349 339 332 328 320 318 318 322 330 339 344 341 339 327 320 316 318 325 325 331 338 48 119 127 114 320 311 310 307 301 313 326 331 342 323 201 193 183 186 196 190 185 169 183 169 205 222 220 233 240 232 199 161 225 219 248 320 45 75 278 289 25 16 314 199 90 81 98 53 27 92 83 60 58 68 115 134
44 43 40 34 29 23 19 15 10 8 1 354 346 336 330 324 319 317 316 321 332 338 343 345 337 329 317 320 322 321 330 327 144 101 114 12 333 319 318 310 300 308 317 322 334 297 233 201 180 197 209 199 171 179 197 179 208 223 223 241 243 169 175 199 237 229 78 332 28 76 136 76 37 10 332 298 89 76 65 27 356 343 349 1 42 75 122 141
40 39 37 32 27 21 16 12 8 5 0 355 350 340 333 326 320 317 315 315 319 326 343 352 352 347 330 324 319 321 328 208 168 107 217 326 329 322 325 316 305 307 315 320 318 272 232 191 184 203 211 208 143 186 209 181 192 186 217 252 257 118 220 142 205 220 99 288 269 118 144 110 59 34 22 353 205 81 38 4 336 308 309 319 339 101 132 143
37 36 34 29 23 18 12 7 1 356 350 345 340 335 329 324 319 314 310 307 306 301 316 339 351 351 343 331 320 321 305 211 135 151 261 325 331 329 328 325 322 319 323 319 314 245 201 190 199 148 209 219 165 197 208 131 63 201 211 273 79 164 236 92 95 136 132 181 163 145 134 121 85 47 35 32 39 29 351 336 326 307 307 307 296 116 127 133
37 33 29 25 18 13 7 2 355 348 343 337 330 324 318 315 312 307 303 298 292 286 292 309 324 336 342 332 319 316 281 277 80 182 313 343 341 339 326 329 334 336 337 319 264 201 191 190 208 191 202 221 194 209 191 118 209 237 210 147 150 209 239 119 117 140 170 169 154 132 95 105 103 69 49 49 40 5 348 339 336 335 340 342 107 111 117 117
31 26 23 19 15 13 9 5 0 355 349 341 333 324 316 308 303 302 298 292 289 286 288 296 309 322 335 332 319 303 259 2 71 12 355 353 342 342 328 325 331 345 347 274 211 207 204 201 212 199 197 216 208 205 153 127 196 241 236 154 163 214 200 117 84 119 169 107 111 98 82 68 81 90 56 45 33 9 10 11 26 43 51 73 90 96 103 98
24 22 20 17 15 12 10 7 4 1 357 351 342 331 323 315 307 302 297 293 291 289 290 295 303 313 328 338 320 268 155 113 83 17 13 354 341 339 328 314 317 346 352 249 267 213 210 207 199 185 211 225 197 182 151 179 195 223 237 154 145 198 189 75 72 112 99 96 101 86 71 55 72 90 60 36 26 19 27 44 56 63 63 66 70 71 76 75
22 20 17 14 12 8 6 3 1 359 357 355 350 340 332 329 321 312 304 298 293 293 294 293 298 308 322 344 298 284 108 112 53 31 16 358 346 338 332 308 292 338 351 6 16 193 207 214 194 195 232 234 179 182 164 212 217 209 213 139 156 161 65 64 85 120 124 137 110 83 67 63 78 82 59 37 22 29 48 60 62 65 63 61 61 60 60 60
19 16 13 9 5 2 359 357 355 353 351 352 351 344 335 333 329 321 311 302 297 296 295 292 293 296 315 333 284 309 98 84 13 20 1 357 351 338 332 311 291 340 1 14 34 174 232 252 189 189 260 120 178 187 154 203 248 125 152 107 132 90 58 45 88 119 134 151 110 97 79 53 37 45 60 36 21 41 62 65 62 63 63 60 60 57 57 58
14 10 7 4 1 358 355 353 351 348 346 346 346 341 332 329 330 325 315 307 301 299 294 288 276 247 292 259 264 356 101 27 358 358 347 351 348 340 340 343 337 348 6 15 31 199 309 257 158 151 262 153 166 175 156 206 43 86 150 156 133 111 84 45 81 125 146 149 119 111 97 53 35 48 52 26 28 54 69 68 63 65 64 61 60 58 56 57
8 5 2 359 356 353 351 350 347 345 343 342 340 336 328 325 327 324 315 307 302 299 285 258 212 184 168 201 257 36 128 1 4 355 343 345 344 343 3 14 0 348 356 10 21 4 341 173 172 171 58 170 164 181 173 112 56 96 203 229 203 169 123 34 53 172 160 159 173 135 115 53 35 45 49 39 51 66 73 71 65 65 66 64 63 61 59 58
2 359 357 354 352 349 348 346 344 344 341 340 337 330 325 324 325 324 317 310 311 303 225 176 166 172 182 175 88 131 171 17 29 350 343 348 348 338 30 1 339 328 332 322 14 24 62 145 179 164 66 223 199 101 147 115 48 185 179 266 270 222 186 34 18 287 111 94 315 248 182 65 45 46 52 44 49 75 73 68 66 66 67 67 66 65 62 58
357 354 352 349 348 345 344 343 342 342 341 341 335 328 328 327 330 333 331 344 37 117 140 151 158 166 189 56 101 116 76 114 355 347 348 359 358 293 272 337 319 281 256 237 104 73 105 129 138 112 79 317 71 130 173 139 213 207 175 235 248 246 191 55 17 337 116 38 325 238 208 77 60 52 54 46 56 86 78 69 67 68 70 70 68 68 65 60
353 350 348 346 345 343 342 342 341 342 342 341 336 332 332 333 338 349 17 65 90 114 122 143 157 166 170 102 111 78 67 55 350 351 0 7 1 320 300 326 328 245 186 125 128 108 108 129 133 122 97 3 159 185 229 193 176 182 246 228 189 239 165 78 32 5 53 62 33 250 197 90 73 63 63 61 74 87 82 76 72 71 72 71 70 68 67 63
351 348 346 344 344 342 342 342 341 343 342 341 338 335 336 343 357 23 60 80 104 115 114 141 162 199 222 88 103 68 58 2 347 353 8 4 355 336 327 329 52 77 131 108 113 110 93 102 96 10 113 185 207 223 259 248 213 179 241 257 219 221 200 111 50 22 6 74 33 10 137 107 85 83 73 68 81 87 85 83 78 75 73 70 69 67 66 64
352 350 347 345 344 343 342 342 342 342 341 341 339 337 344 5 39 62 71 80 93 101 109 132 157 201 84 61 61 36 357 331 344 356 357 358 354 345 350 110 69 73 115 104 109 110 53 51 119 247 95 113 211 222 254 257 246 193 210 249 242 219 243 186 107 41 29 89 62 66 101 105 100 97 81 74 82 86 86 85 82 80 76 73 71 67 65 62
354 352 350 348 345 343 343 341 342 342 341 341 339 342 2 55 76 70 53 65 106 111 115 108 118 183 82 35 359 331 321 318 348 7 354 355 354 351 16 79 107 112 126 107 116 157 335 45 210 235 179 197 191 208 243 271 295 287 265 252 251 217 234 202 119 33 42 81 90 92 100 108 109 101 87 80 79 84 86 85 85 83 79 77 73 70 67 63
353 352 351 349 346 344 343 341 342 344 344 343 341 346 46 95 91 75 45 48 89 119 99 31 2 250 353 14 321 319 321 309 357 15 2 356 353 353 20 37 103 154 179 185 139 81 319 194 216 237 230 227 210 229 256 307 341 297 286 267 270 249 225 100 85 65 69 79 82 98 111 118 114 103 95 86 80 84 86 86 86 83 80 78 74 74 71 67
350 350 350 349 347 344 342 342 344 349 351 346 339 337 114 103 99 81 44 43 55 24 347 1 13 325 347 1 327 338 343 312 39 19 5 356 347 330 10 1 149 161 190 276 95 74 289 250 238 270 308 320 324 289 292 339 339 267 259 252 253 243 184 94 117 102 60 69 74 98 111 113 108 103 99 91 87 84 83 87 85 84 83 80 80 77 73 71
349 349 348 348 347 344 343 343 348 357 356 349 348 14 105 33 337 10 35 48 85 299 339 12 297 306 338 315 338 350 351 121 53 18 5 358 336 277 1 1 228 172 47 320 280 114 247 262 296 353 347 345 344 336 321 300 225 245 250 245 244 231 116 87 122 124 335 96 107 117 109 100 102 103 96 89 84 74 77 87 88 89 88 84 83 80 77 75
349 348 346 347 346 344 344 346 358 4 359 8 42 76 89 86 116 134 36 101 104 295 307 40 256 351 344 269 357 352 322 28 29 15 3 357 354 2 352 10 12 11 41 279 250 240 242 270 27 15 352 344 34 81 193 226 219 235 247 245 254 188 121 96 85 68 43 126 135 135 112 98 104 98 87 80 77 71 71 80 85 89 89 84 81 79 81 77
348 347 346 347 347 345 344 352 11 9 22 46 65 84 99 108 116 123 124 109 89 41 24 37 30 12 10 71 9 351 12 37 359 8 1 355 13 20 339 17 31 40 28 355 312 301 295 30 25 359 316 258 36 98 175 217 223 227 239 256 253 150 161 192 94 81 48 113 146 137 113 105 112 102 90 79 83 85 78 79 80 80 82 79 77 74 75 73
346 346 346 347 347 345 342 1 20 20 48 62 73 92 111 118 111 105 114 116 77 72 45 30 68 15 11 19 358 350 75 63 335 354 359 358 4 317 338 26 1 84 43 16 330 300 344 38 10 326 317 282 296 91 217 264 271 229 226 265 274 171 203 56 117 111 71 95 143 136 122 143 149 141 122 106 103 99 91 92 86 80 84 82 80 75 68 69
346 345 346 346 348 347 343 27 25 25 62 65 71 90 105 120 118 109 135 149 83 87 71 104 154 36 1 329 359 356 158 81 10 337 349 2 352 304 42 30 320 22 51 15 332 296 26 45 330 302 73 358 299 320 353 302 291 274 205 286 300 218 148 120 136 145 106 136 174 174 204 175 159 162 149 141 130 113 104 103 95 87 89 83 80 78 72 71
346 345 345 346 348 351 351 89 15 16 72 57 47 78 101 117 133 46 259 150 89 28 1 29 145 16 2 348 358 345 184 67 34 350 357 10 356 271 32 347 342 36 48 297 353 16 37 58 253 330 345 325 303 345 25 323 287 302 41 350 288 165 144 146 159 179 189 191 186 201 245 219 167 178 164 153 138 126 118 110 107 97 89 80 76 77 73 71
346 345 346 349 354 4 23 99 2 12 73 30 14 39 112 144 94 10 274 120 79 351 348 8 339 3 5 344 336 322 161 337 338 51 13 7 1 238 352 15 45 39 19 265 352 71 355 352 27 359 329 328 343 29 22 317 291 330 45 356 153 150 160 167 178 204 234 51 163 194 233 276 210 179 161 156 144 138 135 121 115 107 97 90 83 80 76 72
347 347 350 356 4 18 40 48 15 36 39 348 354 35 131 160 91 251 254 111 57 347 9 359 340 9 358 331 349 48 43 314 340 24 353 2 13 279 40 34 10 14 1 287 6 53 3 18 17 344 340 17 20 8 357 299 288 34 83 8 77 145 184 183 201 227 225 4 213 193 201 258 237 144 152 163 161 157 149 136 129 120 111 102 93 89 87 80
347 350 1 7 10 18 31 47 44 51 11 342 269 356 158 145 246 243 113 130 356 39 107 326 356 359 339 321 20 41 14 354 21 347 337 8 20 15 92 45 4 49 10 330 27 41 18 28 358 329 358 18 7 2 348 295 302 63 125 141 98 105 137 186 227 243 211 254 255 194 187 222 228 145 167 185 190 181 152 136 135 128 120 113 105 102 98 93
350 1 16 16 13 6 4 40 38 27 6 353 231 200 152 146 226 190 60 3 342 40 194 359 5 315 334 0 47 22 14 25 353 327 350 22 9 28 90 249 303 128 78 54 71 64 43 112 263 4 16 334 323 15 6 322 349 124 197 222 173 157 127 141 216 223 231 239 279 191 194 218 243 160 172 189 193 169 147 138 138 132 125 118 111 108 103 96
355 20 27 21 17 5 359 22 10 0 2 9 147 136 145 204 169 94 60 20 346 6 9 21 9 326 4 32 32 5 7 16 349 354 21 22 9 24 38 345 332 343 31 47 58 77 104 132 100 47 11 322 283 223 123 144 196 226 253 272 269 219 161 181 157 161 236 236 42 32 199 219 244 160 145 104 98 130 140 139 138 134 124 117 107 101 98 87
7 50 37 28 22 12 13 355 337 341 356 64 129 128 191 212 43 58 358 294 322 5 23 16 353 0 2 19 22 1 345 4 14 23 21 20 32 34 35 24 350 333 17 15 346 358 90 98 34 164 138 0 313 286 129 163 223 284 289 295 295 298 257 250 218 195 245 174 71 38 128 213 213 76 91 101 104 110 109 113 124 123 114 102 83 76 84 84
53 80 48 35 26 19 11 342 322 329 357 118 138 127 113 88 58 68 310 330 8 13 6 321 326 337 316 334 19 357 332 3 3 19 20 18 54 63 62 39 10 349 2 351 336 350 56 123 37 29 104 13 342 345 19 351 336 344 348 343 325 323 307 287 289 276 275 65 84 54 337 234 129 84 95 109 106 98 93 98 100 101 100 86 71 66 83 108
125 93 49 31 22 15 6 348 329 327 71 132 168 19 66 67 58 114 345 349 7 343 351 339 317 324 19 42 10 333 14 61 8 9 17 22 43 43 50 35 20 9 320 322 7 355 327 32 28 20 357 348 6 25 358 312 321 3 3 323 319 339 321 300 310 320 317 336 96 123 292 286 75 92 108 108 106 100 95 95 92 91 90 81 73 48 61 137
146 103 43 24 13 5 359 350 334 333 140 131 45 55 69 62 278 67 12 338 325 331 337 326 311 345 62 51 37 346 1 52 26 23 32 37 42 21 9 12 13 10 338 338 32 340 309 318 33 25 325 342 7 33 317 301 303 75 284 297 340 352 317 295 323 345 314 303 288 154 95 41 64 106 121 115 115 113 107 104 101 97 91 80 45 9 354 183
156 126 40 22 5 356 353 349 336 348 165 144 59 59 60 56 358 7 7 334 330 324 311 312 1 21 35 8 33 26 334 14 13 19 55 57 53 30 11 4 11 13 9 352 357 2 327 327 28 31 110 34 9 334 343 338 318 311 331 354 6 333 294 301 325 130 255 283 295 134 134 107 121 157 145 140 134 131 140 130 114 104 94 74 29 2 339 304
163 165 45 15 358 352 353 359 353 41 104 71 75 75 49 66 24 351 350 328 295 297 308 16 29 2 9 356 8 356 329 341 1 360 46 52 43 26 2 1 40 20 5 318 321 54 318 303 13 25 20 81 85 278 59 41 319 337 17 1 340 247 252 319 300 291 294 293 287 143 145 161 190 167 152 166 161 142 143 138 127 103 71 55 20 359 339 304
173 203 123 5 355 354 1 17 24 80 78 59 82 94 47 55 33 330 340 318 251 283 347 52 38 345 5 359 9 345 327 347 360 359 38 24 25 33 1 352 61 25 358 287 274 62 296 294 42 93 335 8 145 243 136 88 28 40 40 340 335 302 304 352 324 315 314 304 300 152 118 140 46 87 170 192 186 152 125 121 126 34 9 18 6 353 337 284
165 213 152 354 354 1 25 42 58 74 66 64 83 94 61 62 73 309 306 292 250 290 31 62 15 23 54 359 359 352 349 13 1 356 41 7 6 57 29 342 316 359 358 294 305 9 268 300 15 131 292 318 8 22 22 37 32 57 79 4 21 334 306 333 328 301 299 303 309 312 309 51 42 20 195 191 173 143 119 111 89 12 356 339 349 344 328 305
135 187 145 352 352 13 56 56 63 47 57 74 73 79 73 122 120 225 261 273 287 358 51 129 334 29 47 32 19 6 17 30 4 20 43 359 353 75 58 9 317 339 339 294 325 354 301 292 317 333 9 339 26 28 12 10 9 2 14 18 9 334 307 308 265 199 304 302 310 312 310 44 59 12 111 139 130 117 95 81 43 1 345 332 341 336 326 319
55 122 359 345 347 24 60 51 55 28 65 83 65 92 98 204 115 47 266 262 328 24 36 67 62 38 29 46 49 1 7 31 27 44 43 17 24 42 56 49 326 325 323 296 3 7 348 303 302 321 355 35 56 45 11 37 47 35 25 15 349 336 333 307 301 83 12 311 314 307 305 36 72 33 89 109 114 110 89 58 352 346 339 329 335 333 325 318
50 100 343 347 9 89 62 51 52 9 80 82 48 87 46 37 96 22 13 353 359 32 53 61 60 46 40 48 40 2 22 36 30 35 46 43 35 17 43 55 316 303 310 316 39 16 330 292 299 320 0 44 84 108 61 61 79 76 61 32 337 337 355 323 324 357 345 322 324 286 292 47 98 83 93 100 111 116 87 24 341 337 337 332 334 332 321 316
45 107 359 358 27 105 62 68 86 24 73 106 52 68 16 32 68 24 25 23 8 13 44 58 58 40 48 28 284 17 31 34 27 29 53 65 50 43 51 9 295 287 299 346 49 7 313 313 318 325 48 125 139 147 171 173 129 86 60 33 7 355 323 298 313 332 325 338 352 297 297 62 137 140 115 104 107 118 41 4 342 332 331 330 330 328 319 320
38 158 5 13 35 115 83 76 118 74 93 144 91 67 36 49 45 28 29 25 19 18 46 64 42 22 41 334 356 31 14 38 55 42 56 50 43 87 126 256 304 336 358 17 359 337 6 24 324 331 356 98 162 167 205 200 47 40 38 24 24 2 301 270 247 281 283 9 0 303 300 23 131 155 147 123 96 341 340 348 339 329 325 327 328 326 323 321
57 149 315 19 39 66 82 64 124 120 121 118 85 48 26 78 55 12 27 37 33 2 39 72 17 356 28 311 98 51 21 24 48 43 55 23 9 115 154 215 269 340 7 208 275 303 4 14 351 4 8 353 337 336 338 329 339 19 34 15 15 6 331 304 282 296 322 11 338 289 299 358 141 170 184 202 307 326 332 335 332 325 321 325 326 325 326 322
74 55 302 2 32 52 70 29 57 105 125 112 87 34 13 71 82 247 204 47 37 20 36 46 345 303 20 27 95 67 35 35 59 64 49 350 324 250 31 214 237 325 7 159 253 300 138 69 28 19 321 318 323 331 358 343 313 333 18 5 5 6 339 304 298 334 338 313 303 199 320 320 296 187 203 277 313 323 324 327 326 322 322 326 325 323 323 320
101 70 11 318 18 39 61 46 26 57 105 102 86 46 17 38 45 217 164 66 50 45 56 54 30 13 17 5 55 72 39 44 61 56 35 314 291 274 299 235 267 332 326 156 159 312 148 67 37 351 269 277 307 317 348 4 356 35 31 9 10 8 6 35 57 14 326 299 304 46 324 306 310 213 202 308 323 322 321 323 323 321 322 324 323 319 316 316
47 128 299 315 20 16 34 37 24 48 60 55 95 68 24 45 52 34 18 53 73 11 18 73 36 23 5 305 342 76 49 64 62 22 334 341 314 312 337 190 276 346 343 93 20 358 51 20 66 199 266 255 259 292 293 54 81 80 59 32 22 18 31 65 109 115 6 312 298 311 306 299 303 299 302 327 325 320 320 319 316 316 319 320 318 315 314 316
57 110 16 344 64 83 28 354 346 51 54 47 64 57 30 56 67 51 328 339 45 14 10 62 28 7 3 325 284 87 33 47 75 24 267 50 331 333 12 30 352 13 21 36 25 25 227 16 97 206 272 241 196 321 218 173 136 104 71 46 35 31 48 64 197 214 321 292 283 295 296 292 296 305 315 323 325 317 314 314 313 315 318 318 314 314 315 319
125 127 118 61 80 74 31 355 332 58 53 32 48 54 28 48 66 94 10 358 21 13 11 82 84 13 12 23 56 76 30 15 62 73 206 181 35 343 14 10 311 353 18 35 3 319 330 17 80 195 269 230 164 111 146 173 164 136 98 57 35 19 91 57 263 267 298 287 283 291 292 289 287 101 314 315 318 313 311 313 315 316 317 314 310 313 316 321
87 108 135 113 75 2 2 18 348 57 52 27 41 67 54 58 61 98 75 19 15 16 6 71 118 65 28 44 60 63 28 11 59 56 209 182 43 21 11 34 279 311 1 35 342 342 2 14 85 302 321 347 148 166 178 162 156 154 139 29 14 355 279 274 270 273 297 298 296 294 294 300 42 345 312 312 313 312 312 314 315 316 315 310 307 311 316 322
96 96 110 105 78 359 354 6 355 64 71 30 35 50 47 65 47 236 106 87 43 38 13 298 185 111 56 54 57 38 355 11 70 34 45 106 76 69 59 62 68 337 359 49 2 4 1 347 40 341 331 357 70 311 223 177 183 165 111 13 342 302 277 267 261 272 285 286 290 298 308 336 347 320 314 317 319 318 316 315 316 315 310 305 305 313 318 324
Height
828 828 828 828 827 827 826 826 825 825 824 824 823 823 822 822 821 821 820 819 819 818 817 817 816 816 816 815 814 813 812 812 811 811 811 811 811 811 811 810 810 809 808 808 807 806 806 806 806 806 805 806 807 807 808 808 808 809 811 816 815 811 811 809 809 811 809 807 808 815 817 812 813 816 816 816 815 815 818 820 822 825 827 829 831 832 832 833
828 828 828 828 827 827 826 826 825 825 824 823 823 822 822 821 821 820 820 819 818 818 817 816 816 815 815 814 813 812 812 811 810 810 810 810 810 810 810 810 809 809 808 807 807 806 805 805 804 804 804 805 807 807 808 808 808 808 810 815 811 806 807 806 805 806 807 809 809 814 819 815 815 817 815 815 815 815 818 821 822 823 825 829 832 835 835 836
829 828 828 828 827 827 826 826 825 824 824 823 822 822 821 821 820 819 819 818 818 817 817 816 815 815 814 814 813 812 811 810 810 810 810 810 810 809 809 809 809 808 807 807 806 806 805 804 804 803 804 805 806 807 807 808 809 807 811 814 807 804 807 807 807 807 810 812 809 814 819 818 820 820 816 816 816 818 825 830 830 826 827 829 833 837 837 838
829 829 828 828 828 827 826 826 825 824 823 823 822 821 821 820 819 819 818 818 817 817 816 816 815 814 814 813 812 811 810 810 810 810 810 810 809 809 809 808 808 807 807 806 805 805 804 804 803 803 804 805 807 808 806 807 809 808 811 809 805 807 808 808 811 811 814 814 812 814 818 820 824 824 823 819 815 821 834 841 842 838 835 835 835 838 839 838
829 829 829 828 828 827 826 825 825 824 823 822 821 821 820 819 818 818 817 817 817 816 816 815 815 814 813 812 812 810 810 811 810 809 810 809 809 809 808 808 807 807 806 805 805 804 804 804 803 804 804 805 807 808 806 807 810 809 808 807 807 810 808 810 814 814 817 816 814 815 816 820 825 830 833 830 827 835 845 847 847 844 840 838 837 839 840 839
830 829 829 828 828 827 826 825 824 823 822 822 821 820 819 818 818 817 816 816 816 816 815 815 814 813 813 812 811 809 810 811 810 809 809 809 809 808 808 807 806 806 806 805 805 805 804 803 803 803 804 805 806 807 806 809 811 808 807 808 811 811 808 811 814 817 818 813 813 815 816 822 827 835 841 842 846 851 852 850 848 845 842 840 839 840 841 841
830 829 829 828 827 826 825 824 823 823 822 821 820 819 818 817 817 816 816 815 815 814 814 814 813 813 812 811 810 809 809 809 809 809 809 808 808 808 807 807 806 805 805 805 805 804 804 803 802 803 804 806 806 806 808 810 811 809 807 808 813 814 811 813 817 820 819 814 816 817 820 826 827 834 842 847 853 854 852 851 849 846 843 841 841 842 843 844
830 829 828 828 827 826 825 824 823 822 821 820 819 817 817 816 815 815 814 814 814 813 813 813 812 812 811 810 810 809 809 808 809 809 809 808 808 807 807 806 805 805 805 805 804 804 804 803 803 804 804 806 806 807 810 810 809 809 807 807 814 816 813 816 820 822 820 819 819 819 826 832 832 835 845 853 855 855 853 851 849 848 846 845 845 846 847 847
830 829 828 827 826 825 824 823 822 821 820 819 817 816 815 815 814 813 813 813 812 812 812 812 811 811 811 810 809 809 808 809 809 809 809 808 808 806 806 805 805 805 804 804 804 804 803 802 803 803 803 805 806 807 810 810 807 807 807 808 812 814 815 818 820 821 821 820 818 822 831 837 837 836 846 857 858 856 855 852 851 849 848 849 850 851 851 851
830 829 828 827 826 825 824 823 822 820 819 818 817 815 814 814 813 812 812 811 811 811 811 810 810 810 810 809 809 809 809 809 809 809 809 808 807 806 805 805 805 804 804 804 803 803 803 803 803 802 803 805 807 808 810 809 807 808 809 811 812 814 817 817 818 820 821 820 818 823 834 840 839 837 847 860 859 858 856 854 854 852 852 854 854 855 855 855
830 829 828 827 826 825 824 822 821 820 818 817 816 814 813 813 812 811 810 810 810 810 809 809 809 809 810 809 810 810 809 809 809 809 808 807 806 805 804 804 804 804 804 803 804 804 803 803 803 803 804 804 807 810 811 811 810 811 811 812 813 816 817 816 818 820 820 821 821 822 830 839 842 846 856 862 861 860 858 857 857 856 857 859 859 859 859 860
830 829 828 827 825 824 823 822 821 819 818 816 815 814 812 811 811 810 809 809 809 808 808 808 809 809 810 809 809 810 809 810 809 809 808 807 806 805 804 804 804 804 804 804 804 803 803 803 802 803 805 805 806 810 812 813 813 813 812 810 810 811 813 817 819 820 819 820 824 821 822 838 852 858 864 864 862 862 859 860 861 861 862 862 863 864 864 865
830 829 827 826 825 824 822 821 820 818 817 815 814 812 811 810 809 809 808 808 808 807 808 808 808 809 809 809 810 810 810 810 810 809 808 807 806 805 804 804 804 804 804 804 804 803 803 803 803 804 806 805 807 811 812 814 815 813 813 811 809 807 810 820 821 819 819 821 828 822 816 841 863 864 865 865 864 864 862 863 864 865 866 866 867 867 869 870
829 828 827 826 824 823 822 820 819 817 816 814 813 811 810 809 808 808 807 807 807 807 807 807 808 809 809 810 810 810 810 810 810 809 808 807 806 805 805 804 803 803 804 804 804 803 803 804 804 805 808 809 810 812 811 812 813 811 813 813 810 807 810 823 825 820 820 822 827 820 816 845 866 865 867 866 865 865 864 867 869 870 870 871 872 871 873 874
829 827 826 825 823 822 820 819 818 816 814 813 811 810 809 808 807 807 806 806 807 807 807 808 808 808 809 809 810 810 810 810 810 809 808 807 806 805 805 804 803 803 803 803 803 804 804 804 804 806 810 812 811 811 809 809 810 811 812 809 810 809 810 821 827 824 821 821 824 818 823 852 867 867 869 867 867 867 867 871 873 874 874 874 875 875 876 878
828 826 825 824 822 821 819 818 816 815 813 812 810 809 808 807 807 806 806 807 806 807 807 808 808 808 809 810 810 810 810 811 810 809 809 808 807 806 805 804 804 803 803 804 804 804 804 805 809 811 811 811 810 808 808 809 808 810 811 806 808 809 807 815 825 829 825 822 824 820 830 856 867 869 871 869 870 870 870 874 876 877 878 878 879 879 880 881
827 825 824 823 821 819 818 816 815 814 812 810 809 808 807 807 807 806 807 807 807 808 808 808 808 808 810 810 810 811 812 812 810 810 809 808 807 806 805 805 804 804 804 804 804 805 805 807 812 812 809 810 810 809 811 810 804 806 810 808 811 813 809 810 820 829 827 824 830 832 841 860 867 870 873 872 872 872 873 876 878 879 880 881 882 883 884 885
826 825 823 821 820 819 817 816 814 813 811 810 808 807 807 807 807 807 808 807 808 807 807 808 808 810 813 812 812 813 812 812 811 811 809 807 807 806 805 805 805 804 804 805 805 805 805 807 810 808 808 811 811 810 810 809 803 804 808 806 810 814 811 810 820 833 831 829 837 842 853 866 869 872 874 875 875 875 877 879 880 882 882 884 885 886 888 888
825 824 822 821 819 818 816 815 813 812 811 809 807 807 807 807 807 808 808 807 808 809 810 812 811 814 816 815 816 815 812 812 811 810 809 808 806 806 806 805 805 805 805 805 805 807 808 807 809 807 806 807 807 807 806 807 807 809 810 807 807 808 811 820 831 839 835 836 844 846 855 867 870 874 876 877 878 877 880 881 882 884 885 887 887 889 891 891
824 823 821 820 818 817 816 814 813 811 810 808 807 806 806 808 809 809 809 811 814 816 817 817 817 816 816 817 817 814 812 812 811 811 810 808 806 806 805 805 805 804 806 808 806 811 813 808 807 806 806 808 810 813 813 814 815 814 812 811 810 806 814 830 839 842 839 842 854 855 859 869 872 877 879 879 880 880 882 883 885 887 887 890 891 892 894 895
824 822 820 819 817 816 815 813 812 811 810 808 807 806 808 810 811 811 813 816 820 821 819 819 819 818 817 818 817 816 814 811 811 812 810 809 807 805 805 806 805 804 811 817 813 814 814 808 809 813 817 820 822 823 823 821 819 817 812 811 811 808 819 835 840 843 841 843 859 863 864 874 877 879 881 881 882 883 885 886 887 889 890 892 893 895 896 897
823 821 819 818 817 815 814 813 812 811 810 808 807 808 811 812 812 813 813 815 819 821 820 820 819 818 819 819 818 817 816 813 812 811 811 809 805 806 807 807 807 808 815 817 812 810 809 808 816 824 828 828 827 828 826 821 819 816 812 811 810 812 825 838 842 845 840 841 858 864 867 878 881 881 884 884 887 888 889 889 890 891 893 894 896 897 898 899
822 820 819 817 816 814 813 812 812 811 810 809 809 811 813 813 813 814 813 813 817 820 820 819 819 819 818 818 819 818 816 819 818 814 814 811 809 813 812 810 812 813 814 813 810 809 807 812 825 832 833 827 824 826 824 819 816 813 812 810 809 816 820 823 839 850 842 842 853 861 869 879 883 884 888 888 890 892 892 893 894 894 896 897 898 899 899 901
821 820 818 817 815 814 813 812 812 811 810 811 811 812 814 814 813 813 814 818 820 819 820 821 821 821 820 820 820 818 818 823 822 819 818 816 814 815 815 817 816 813 816 820 817 813 812 823 835 835 832 827 820 821 820 815 810 810 814 810 808 818 817 818 837 847 845 850 853 855 861 871 880 882 887 891 891 893 894 894 896 897 899 900 900 902 902 903
821 819 817 816 815 813 812 812 812 812 812 812 813 814 814 814 814 813 814 819 821 819 820 821 821 821 822 821 820 821 821 823 824 823 822 821 819 817 818 822 818 813 819 825 820 814 818 832 839 830 826 826 819 817 820 817 810 808 816 819 815 816 819 829 838 834 839 850 851 845 835 845 872 879 882 889 890 893 895 895 898 898 899 901 901 903 904 904
820 818 817 815 814 813 812 812 812 813 812 813 814 814 814 814 814 814 813 817 821 822 822 821 821 822 822 822 823 822 821 822 825 825 823 823 822 820 819 821 820 819 823 826 822 820 825 834 836 827 822 822 817 816 825 826 813 807 821 831 826 819 821 831 832 822 822 827 836 839 823 828 863 876 878 886 888 892 896 895 898 899 900 902 902 904 905 905
819 818 816 814 814 813 811 812 813 813 813 814 815 814 815 814 814 814 814 819 824 827 825 822 822 824 824 826 825 822 822 824 824 825 825 823 823 822 818 819 821 822 829 825 818 824 830 828 828 825 821 818 815 817 828 831 816 813 830 836 826 822 822 825 824 817 814 819 829 839 831 823 840 861 874 883 886 891 895 896 899 900 902 904 904 906 906 907
819 817 816 814 814 813 813 813 813 813 814 815 815 814 815 814 815 815 814 823 831 829 828 826 824 825 826 827 826 825 828 829 824 824 826 825 824 821 818 824 825 824 832 825 814 826 834 828 828 828 820 817 821 826 835 835 821 822 837 836 828 827 822 822 822 815 816 824 822 829 838 825 827 860 880 880 884 888 892 896 899 901 903 905 906 907 908 909
818 817 816 815 814 814 814 813 813 814 814 815 814 815 815 814 815 813 813 826 834 830 831 828 824 828 830 828 829 831 832 831 830 829 828 826 825 823 823 829 829 827 831 826 818 828 835 835 837 833 824 823 829 836 842 838 827 832 840 835 832 831 827 826 823 817 822 828 816 816 830 819 825 868 884 876 878 883 889 895 897 901 904 905 907 908 909 910
818 817 816 815 815 814 814 814 814 814 814 814 814 814 815 815 815 815 821 831 833 832 833 830 832 838 836 829 829 834 834 835 839 834 829 830 827 825 829 832 829 826 826 825 824 831 838 841 841 838 835 835 837 841 847 843 836 839 836 826 825 826 828 827 823 823 826 823 817 819 824 814 820 857 875 872 875 878 886 895 897 901 904 905 908 908 909 910
818 817 817 816 815 815 814 814 814 814 814 814 814 814 815 815 814 819 830 836 834 834 835 836 842 845 844 840 836 839 839 838 842 838 832 833 831 828 830 832 831 823 818 820 824 828 834 835 836 842 845 843 839 838 844 847 842 838 827 819 820 816 820 824 822 829 824 814 823 835 834 822 821 848 870 877 882 882 886 893 896 901 903 905 908 908 910 910
818 818 817 816 816 815 814 815 814 814 814 813 814 814 814 815 820 830 838 836 835 841 844 846 849 849 850 848 844 847 846 841 843 846 845 842 842 845 845 846 846 832 823 827 826 822 826 832 837 843 845 845 838 827 830 837 834 827 819 817 816 809 813 816 814 820 815 811 831 842 835 828 837 865 882 883 888 889 889 893 896 901 903 906 908 909 910 911
818 818 818 817 817 816 815 815 814 813 813 813 814 814 812 815 830 847 846 837 841 851 853 853 853 853 851 844 845 853 851 846 845 848 850 847 845 852 855 857 858 846 837 836 832 826 826 831 836 837 839 844 839 826 825 828 825 822 821 821 819 817 823 822 812 813 812 817 838 846 838 835 852 881 890 887 892 894 894 898 899 902 905 907 909 910 911 912
818 818 818 818 817 816 815 814 814 813 813 813 813 812 813 823 841 854 849 845 852 856 857 860 856 851 849 847 852 857 849 847 850 847 846 844 844 851 854 857 860 856 848 840 842 844 834 829 836 838 839 843 842 841 841 837 830 831 833 828 823 825 831 829 818 817 820 821 832 843 844 845 858 881 893 892 895 898 899 902 904 906 908 909 910 911 911 912
818 818 819 818 817 816 815 814 813 813 813 813 812 815 824 839 851 854 853 856 859 857 858 862 854 844 844 850 858 861 851 847 852 850 849 850 853 859 861 863 866 864 855 846 850 854 838 832 843 849 849 848 846 850 853 844 833 834 836 830 829 834 836 835 835 843 846 834 830 846 863 875 884 892 896 897 898 902 904 906 908 909 910 910 911 911 911 912
818 818 818 818 817 816 814 814 813 813 814 811 814 829 845 855 858 858 861 864 864 863 858 854 850 844 844 848 852 858 856 851 850 849 853 860 863 866 869 871 873 872 867 859 858 857 844 836 843 849 850 851 853 852 852 847 837 832 834 833 840 849 843 839 846 856 857 843 837 850 867 886 896 895 897 900 901 904 905 906 909 910 910 911 911 911 910 911
818 818 819 819 817 815 814 814 812 813 813 811 822 847 862 865 867 868 870 869 870 870 858 847 852 855 854 851 849 856 856 850 851 848 850 860 865 871 874 873 875 877 877 872 864 865 860 845 841 847 846 848 858 857 850 853 847 836 838 841 847 851 845 844 848 847 845 838 834 846 862 876 880 885 899 903 900 904 904 905 909 909 910 912 911 911 910 910
818 819 819 819 818 816 814 813 813 813 813 821 841 861 866 867 873 875 875 874 872 868 857 851 856 860 861 856 854 864 861 849 852 854 853 858 865 875 880 877 876 877 880 878 866 865 868 851 840 849 849 846 853 852 845 850 850 844 847 848 847 847 843 847 852 850 850 844 836 847 864 872 873 884 901 902 898 903 905 905 909 909 909 911 911 911 910 910
818 818 819 820 818 816 815 814 815 813 815 833 853 863 866 870 875 878 879 877 872 865 859 862 864 861 863 864 864 871 870 862 861 859 858 862 867 878 886 883 879 876 879 880 868 865 868 856 843 845 849 847 845 846 848 851 850 848 849 850 853 854 850 853 855 853 856 850 843 847 852 863 882 892 894 895 896 903 905 906 909 909 909 910 910 910 909 909
819 818 819 821 817 817 817 813 814 819 830 849 861 864 870 872 873 879 882 878 872 865 863 867 868 863 867 874 874 874 875 873 869 863 864 870 871 878 889 891 887 882 880 878 872 869 865 859 851 841 841 847 851 858 864 863 859 855 854 859 864 862 857 858 857 857 859 852 850 853 847 863 893 896 890 896 901 904 907 907 909 909 909 909 909 909 909 909
818 819 821 821 818 819 816 816 830 843 850 860 864 866 872 872 871 876 880 879 875 870 870 871 870 869 871 873 874 876 875 872 871 870 871 874 874 876 888 898 898 892 884 872 870 874 868 864 863 849 842 851 864 875 877 871 869 866 865 874 879 873 865 861 858 862 866 859 860 862 854 870 898 898 896 902 902 905 909 908 909 909 908 908 908 908 909 909
819 823 826 822 819 818 816 828 853 860 856 862 866 869 873 872 871 873 876 878 875 872 873 873 873 875 874 872 873 876 875 871 872 873 874 880 881 881 891 903 903 900 890 874 873 882 877 871 867 857 855 863 872 880 880 877 876 873 876 884 885 880 876 868 861 865 869 866 869 866 859 876 902 903 900 903 903 906 908 907 908 908 906 908 908 908 909 909
823 827 827 823 821 819 820 837 858 862 863 870 873 874 876 874 871 872 875 876 874 872 870 872 875 875 875 877 875 873 874 876 876 877 878 883 885 887 896 903 900 897 889 877 877 882 879 875 869 856 855 864 872 878 881 880 876 874 881 890 892 892 892 886 881 880 875 870 871 866 860 877 900 903 901 904 905 905 906 906 908 907 906 907 906 907 908 909
829 830 828 825 820 817 824 840 853 860 867 871 870 872 876 876 875 874 875 877 877 875 871 873 877 875 876 881 878 875 877 877 878 882 883 883 885 891 898 900 897 891 885 882 884 882 876 874 871 861 856 859 863 867 869 870 873 878 886 895 900 904 904 899 895 887 878 879 884 876 864 872 894 902 901 904 905 904 905 906 906 906 906 906 905 907 908 908
829 830 831 830 824 823 836 849 851 856 864 865 867 873 874 875 880 881 878 879 882 881 875 876 880 879 880 881 877 879 881 876 877 885 889 886 886 891 894 897 897 891 889 894 894 887 880 877 874 869 868 868 864 863 868 873 877 883 891 898 903 906 904 896 885 874 873 885 889 881 870 874 891 901 900 901 904 904 904 904 905 906 905 905 906 906 907 908
827 831 835 836 833 837 851 860 855 855 861 861 865 875 875 873 879 884 881 879 881 882 879 880 883 881 878 878 876 878 882 881 881 886 892 891 887 889 892 894 894 892 892 897 897 891 885 884 884 879 875 874 872 875 884 888 884 886 897 903 904 907 908 897 881 876 886 892 884 881 886 887 888 894 898 900 903 904 904 904 905 904 904 904 905 906 908 908
830 840 846 843 841 846 853 860 862 860 861 862 867 876 878 875 877 878 878 878 880 882 881 882 884 880 878 879 876 877 883 884 884 888 896 898 892 890 892 892 891 891 892 894 896 891 879 880 893 895 886 884 886 890 895 894 891 897 906 908 904 905 905 898 891 893 900 896 881 881 894 894 886 891 900 903 904 905 905 905 904 904 904 904 905 907 908 908
836 846 855 850 849 855 856 860 867 866 864 867 874 879 878 877 878 877 877 878 879 881 878 878 884 885 887 887 879 878 886 885 886 894 897 898 896 888 885 888 889 890 890 890 893 892 878 879 899 904 893 893 898 898 897 897 899 905 908 907 907 907 905 904 905 906 905 900 888 883 891 893 888 893 902 905 905 906 905 905 904 903 903 904 906 907 907 908
842 847 857 855 856 866 870 870 869 866 865 869 875 880 879 878 881 885 886 881 876 879 879 879 886 889 891 892 883 882 888 883 884 895 899 898 899 894 887 885 886 889 890 888 894 897 884 881 901 908 896 893 899 900 900 900 902 908 909 907 907 908 908 909 907 905 907 905 895 890 894 894 892 898 904 905 905 906 905 904 903 902 903 904 906 907 907 907
839 843 851 855 861 872 875 874 869 863 867 871 873 881 885 881 881 887 891 885 878 880 883 883 890 893 892 891 886 886 893 890 887 895 901 898 898 899 896 891 891 890 889 891 897 896 883 883 904 910 889 884 898 903 901 899 899 904 906 906 907 907 907 910 908 906 908 904 897 899 901 895 895 902 906 904 904 905 904 903 902 902 903 904 906 907 907 907
838 841 844 847 862 875 874 874 872 865 869 876 877 882 884 882 884 887 890 893 890 887 888 888 890 893 893 892 892 894 899 899 895 897 901 899 895 897 897 898 899 893 890 897 900 896 890 889 903 902 875 870 893 901 898 902 904 904 905 905 908 908 906 908 908 906 907 906 904 905 900 892 896 904 905 903 905 905 903 903 903 902 903 905 907 907 907 906
839 843 842 842 860 879 879 876 873 868 874 885 887 887 885 885 891 889 885 892 896 894 895 895 891 891 892 893 897 900 900 900 900 900 902 901 900 902 900 901 904 898 895 900 905 912 911 895 896 901 878 866 884 896 900 901 893 890 900 908 910 910 908 907 905 901 903 907 906 901 894 896 902 905 904 904 904 904 904 904 904 903 903 905 907 907 907 906